Regional Weather Roundup
Issued by NWS

Home | Current Version | Previous Version | Graphics & Text | Print | Product List | Glossary On
Versions: 1 2 3 4 5 6 7 8 9 10 11 12 13 14 15 16 17 18 19 20 21 22 23 24 25 26 27 28 29 30 31 32 33 34 35 36 37 38 39 40 41 42 43 44 45 46 47 48 49 50
000
ASUS43 KDMX 220407
RWRIA

WEATHER ROUNDUP FOR IOWA
NATIONAL WEATHER SERVICE DES MOINES IA
1100 PM CDT THU MAY 21 2015

NOTE: "FAIR" INDICATES FEW OR NO CLOUDS BELOW 12,000 FEET WITH NO
SIGNIFICANT WEATHER AND/OR OBSTRUCTIONS TO VISIBILITY.

* - THESE STATIONS ARE NOT NWS STATIONS...THUS NOT UNDER NWS
QUALITY CONTROL.  THEY ALSO DO NOT REPORT WEATHER SUCH
AS PRECIPITATION OR FOG.

IAZ001>003-012>014-020>022-031>034-043>046-220500-
   NORTHWEST IOWA

CITY           SKY/WX    TMP DP  RH WIND       PRES   REMARKS
CARROLL *      PTCLDY    55  41  58 W8        30.13R
CHEROKEE *     CLEAR     55  43  62 CALM      30.15R
DENISON *      CLEAR     54  43  66 CALM      30.13S
LE MARS *      CLEAR     59  41  51 CALM      30.15S
ORANGE CITY *  CLEAR     55  41  58 NW5       30.15R
SHELDON *      CLEAR     52  39  62 CALM      30.13R
SIOUX CITY       N/A     56  38  50 W8        30.15R
SPENCER        CLEAR     50  40  68 W5        30.13R
STORM LAKE *   CLEAR     59  39  47 NW9       30.15R
$$

IAZ055>058-069>071-079>083-090>094-220500-
   SOUTHWEST IOWA

CITY           SKY/WX    TMP DP  RH WIND       PRES   REMARKS
ATLANTIC *     CLEAR     54  43  66 SW6       30.16R
AUDUBON *      CLEAR     55  43  62 W8        30.16R
CLARINDA *     CLEAR     55  46  71 SW5       30.19S
COUNCIL BLFS * CLEAR     57  43  58 SW7       30.18R
CRESTON *      CLEAR     55  45  67 W8        30.16R
HARLAN  *      CLEAR     57  43  58 W12       30.19R
LAMONI         CLEAR     60  44  55 W12       30.15R
RED OAK *      CLEAR     57  43  58 W5        30.17S
SHENANDOAH *   CLEAR     54  46  76 SW5       30.18S
$$

IAZ047>049-059>061-072>074-084-220500-
   CENTRAL IOWA

CITY           SKY/WX    TMP DP  RH WIND       PRES   REMARKS
AMES           CLEAR     53  42  66 W9        30.11R
ANKENY *       CLEAR     57  43  58 W9        30.11R
CHARITON *     CLEAR     57  45  62 SW9       30.13R
DES MOINES     CLEAR     61  41  47 NW5       30.12R
GRINNELL*      CLEAR     57  37  47 W5        30.10R
KNOXVILLE *    CLEAR     57  45  62 W7        30.10R
MARSHALLTOWN   CLEAR     51  36  56 NW7       30.08R
PELLA *        CLEAR     57  48  72 W3        30.12R
PERRY *          N/A     55  43  62 NW6       30.13R
$$

IAZ004>006-015-016-023>025-035-036-220500-
   NORTH CENTRAL IOWA

CITY           SKY/WX    TMP DP  RH WIND       PRES   REMARKS
ALGONA *       CLEAR     54  36  50 NW6       30.12R
CLARION *      CLEAR     55  36  47 NW3       30.11R
ESTHERVILLE    CLEAR     52  29  41 W7        30.12R
FORT DODGE *   CLEAR     48  39  71 CALM      30.12S
MASON CITY     CLEAR     52  38  58 W7        30.11R
FOREST CITY *  CLEAR     48  36  61 CALM      30.10S
IOWA FALLS *     N/A     50  36  57 W3        30.11R
$$

IAZ007>011-017>019-026>030-037>042-050>054-066-220500-
   NORTHEAST IOWA

CITY           SKY/WX    TMP DP  RH WIND       PRES   REMARKS
CEDAR RAPIDS   CLEAR     55  35  47 NW7       30.06R
CHARLES CITY * CLEAR     57  36  44 NW6       30.09R
CLINTON *        N/A     55  41  58 W7        30.07R
DECORAH *      PTCLDY    59  34  38 NW5       30.06R
DUBUQUE        CLEAR     56  37  49 NW8       30.05R
MONTICELLO *   CLEAR     50  43  76 CALM      30.06R
OELWEIN *      CLEAR     55  37  50 NW7       30.08R
WATERLOO       CLEAR     52  40  63 W3        30.08R
$$

IAZ064-065-067-068-078-220500-
   EAST CENTRAL IOWA

CITY           SKY/WX    TMP DP  RH WIND       PRES   REMARKS
DAVENPORT      CLEAR     58  43  57 NW3       30.06R
IOWA CITY      CLEAR     50  41  71 W7        30.08R
MT. PLEASANT * CLEAR     57  46  67 SW8       30.09R
MUSCATINE *    CLEAR     59  46  63 SW10      30.06S
QUAD CITIES    CLEAR     61  44  53 SW8       30.04R
$$

IAZ062-063-075>077-085>089-095>099-220500-
   SOUTHEAST IOWA

CITY           SKY/WX    TMP DP  RH WIND       PRES   REMARKS
BURLINGTON     PTCLDY    57  49  74 SW8       30.08S
FAIRFIELD *    CLEAR     59  46  63 W7        30.10R
FORT MADISON * PTCLDY    59  48  67 SW10      30.10S
KEOKUK *       PTCLDY    59  48  67 SW10      30.10S
OSKALOOSA *      N/A     55  45  67 W10       30.11R
CENTERVILLE *  CLEAR     55  55 100 SW12      30.15R
OTTUMWA        CLEAR     59  45  59 W9        30.10R
WASHINGTON *   CLEAR     59  43  55 W9        30.10R
$$

ABBREVIATIONS USED IN REMARKS
   TC - TEMPERATURES IN CELSIUS
  WCI - WIND CHILL INDEX
   HX - HEAT INDEX
  VSB - VISIBILITY
$$



USA.gov is the U.S. government's official web portal to all federal, state and local government web resources and services.